User: anonymous
Location: Fort Wayne
(41.1310°N, 85.1290°W)
Time: 07:33:35
(UTC-04:00)
Language:

OAO 2 Rocket - Orbit

View from above orbital plane
View from above orbital plane
View from above satellite
View from above satellite

Ground track
Ground track

The orbit data is extracted from the following two-line orbital elements,

1 03598U 68110B   14244.71654265  .00000313  00000-0  76950-4 0  6953
2 03598 034.9946 332.2242 0050451 240.7996 252.7249 14.53671988418008
Epoch (UTC): 01 September 2014 17:11:49
Eccentricity: 0.0050451
inclination: 34.9946°
perigee height: 678 km
apogee height: 749 km
right ascension of ascending node: 332.2242°
argument of perigee: 240.7996°
revolutions per day: 14.53671988
mean anomaly at epoch: 252.7249°
orbit number at epoch: 41800

The dashed part of the orbit path shows where the satellite is in the earth's shadow,  

DLR